Regional Weather Roundup
Issued by NWS

Home | Current Version | Previous Version | Text Only | Print | Product List | Glossary Off
Versions: 1 2 3 4 5 6 7 8 9 10 11 12 13 14 15 16 17 18 19 20 21 22 23 24 25 26 27 28 29 30 31 32 33 34 35 36 37 38 39 40 41 42 43 44 45 46 47 48 49 50

000
ASUS43 KLSX 201307
RWRMO

WEATHER SUMMARY FOR MISSOURI
NATIONAL WEATHER SERVICE SPRINGFIELD MO
800 AM CDT MON OCT 20 2014

NOTE: "FAIR" INDICATES FEW OR NO CLOUDS BELOW 12,000 FEET WITH NO
       SIGNIFICANT WEATHER AND/OR OBSTRUCTIONS TO VISIBILITY.
       CURRENT SKY AND/OR WEATHER CONDITIONS ARE NOT AVAILABLE FOR
       CHILLICOTHE AND FARMINGTON.

MOZ001>031-035>038-043-044-053-054-201400-
...NORTHERN AND WESTERN MISSOURI...

CITY           SKY/WX    TMP DP  RH WIND       PRES   REMARKS
KANSAS CTY INT PTCLDY    51  49  92 W3        30.02R
KANSAS C DTWN  CLEAR     53  50  89 CALM      30.02R
LEE`S SUMMIT   CLEAR     51  50  96 W6        30.02R
ST JOSEPH      FOG       40  40 100 CALM      30.02R VSB<1/4
CHILLICOTHE      N/A     47  45  93 CALM      30.01R
KIRKSVILLE     CLEAR     50  47  89 NW6       29.99R

$$
MOZ066>068-077>081-088>096-101>105-201400-
...SOUTHWEST MISSOURI...

CITY           SKY/WX    TMP DP  RH WIND       PRES   REMARKS
SPRINGFIELD    CLOUDY    57  53  86 SW5       30.04S
JOPLIN         CLOUDY    58  52  80 SW7       30.06R

$$
MOZ032>034-039>042-045>050-055>058-069>072-201400-
...CENTRAL MISSOURI...

CITY           SKY/WX    TMP DP  RH WIND       PRES   REMARKS
COLUMBIA       CLEAR     53  51  93 W8        29.99S
JEFFERSON CITY CLEAR     48  46  93 CALM      30.00S
ROLLA          PTCLDY    51  47  86 SW8       30.00R
SEDALIA        CLEAR     54  51  90 SW6       30.02R
WHITEMAN AFB   CLEAR     51  49  95 SW7       30.01R
OSAGE BEACH    CLEAR     55  48  76 W5        30.02R

$$
MOZ051-052-059>065-201400-
...EAST CENTRAL MISSOURI...

CITY           SKY/WX    TMP DP  RH WIND       PRES   REMARKS
ST LOUIS INTL  PTCLDY    56  49  77 W10       29.97S
SPIRIT OF STL  PTCLDY    55  49  80 W9        29.97R
ST CHARLES     CLEAR     52  48  86 SW7       29.96S

$$
MOZ072>076-082>087-097>100-106>115-201400-
...SOUTH CENTRAL AND SOUTHEAST MISSOURI...

CITY           SKY/WX    TMP DP  RH WIND       PRES   REMARKS
CAPE GIRARDEAU CLOUDY    54  49  83 SW3       30.04R
FARMINGTON     MOCLDY    52  48  87 S3        30.02S
POPLAR BLUFF   CLOUDY    52  48  86 S3        30.04S
WEST PLAINS    MOCLDY    53  48  83 W8        30.06R

$$


USA.gov is the U.S. government's official web portal to all federal, state and local government web resources and services.